User: anonymous   Login
Location: Turtle Rock Observatory
(36.6913°N, 81.9708°W)
Time: 16:03:01
(UTC-04:00)
Language:

Cosmos 1125 Rocket - Orbit

View from above orbital plane
View from above orbital plane
View from above satellite
View from above satellite

Ground track
Ground track

The orbit data is extracted from the following two-line orbital elements,

1 11511U 79078B   17262.92790421 +.00000077 +00000-0 +34896-4 0  9990
2 11511 074.0366 141.1700 0015614 358.1307 001.9785 14.36787590991969
Epoch (UTC): 19 September 2017 22:16:10
Eccentricity: 0.0015614
inclination: 74.0366°
perigee height: 758 km
apogee height: 780 km
right ascension of ascending node: 141.1700°
argument of perigee: 358.1307°
revolutions per day: 14.36787590
mean anomaly at epoch: 1.9785°
orbit number at epoch: 99196

The dashed part of the orbit path shows where the satellite is in the earth's shadow,  

DLR